Regional Weather Roundup
Issued by NWS

Home | Current Version | Previous Version | Graphics & Text | Print | Product List | Glossary On
Versions: 1 2 3 4 5 6 7 8 9 10 11 12 13 14 15 16 17 18 19 20 21 22 23 24 25 26 27
000
ASUS44 KLIX 200106
RWRLA
LOUISIANA WEATHER ROUNDUP
NATIONAL WEATHER SERVICE NEW ORLEANS LA
800 PM CDT TUE JUN 19 2018

NOTE: "FAIR" INDICATES FEW OR NO CLOUDS BELOW 12,000 FEET WITH NO
      SIGNIFICANT WEATHER AND/OR OBSTRUCTIONS TO VISIBILITY.
      SKY/WX - SKY CONDITION AND SIGNIFICANT WEATHER.
      TMP - AIR TEMPERATURE.    DP   - DEWPOINT TEMPERATURE.
      RH  - RELATIVE HUMIDITY.  PRES - PRESSURE.
      HX  - HEAT INDEX.         WCI  - WIND CHILL INDEX.

*  THESE STATIONS ARE NOT NWS OR FAA STATIONS AND ARE NOT UNDER
   NWS QUALITY CONTROL.

LAZ040-048-061>063-065-066-069-200200-
SOUTHEAST LOUISIANA

CITY           SKY/WX    TMP DP  RH WIND       PRES   REMARKS
N.O. INTL ARPT CLOUDY    84  77  79 SE9       29.95F
N.O. LAKEFRONT FAIR      84  74  71 SE9       29.96F
N.O. DOWNTOWN* FAIR      84  75  74 CALM      29.96F
RESERVE*         N/A     83  76  80 CALM      29.96S
SLIDELL        FAIR      83  75  77 CALM      29.96S
BATON ROUGE    FAIR      78  74  87 E5        29.96R
BOOTHVILLE     FAIR      85  77  77 SE5       29.97S HX  95
BELLE CHASSE   FAIR      83  78  85 SE8       29.96F
BOGALUSA*      FAIR      84  71  65 S3        29.98S
GALLIANO*      FAIR      82  74  77 SE5       29.96S
NEW ROADS*     FAIR      78  73  84 CALM      29.96S
GONZALES*      FAIR      79  74  85 CALM      29.95S
HAMMOND*       FAIR      81  77  89 CALM      29.97S
HOUMA*         FAIR      81  77  89 CALM      29.95F
PORT FOURCHON* CLEAR     84  77  79 SE8       29.96S

$$

LAZ041-044-053-054-200200-
SOUTHWEST LOUISIANA

CITY           SKY/WX    TMP DP  RH WIND       PRES   REMARKS
LAKE CHARLES   FAIR      78  76  93 E3        29.91F
LAFAYETTE      FAIR      79  76  90 CALM      29.95S
PATTERSON      FAIR      81  78  91 SE3       29.96R
SALT POINT       N/A    N/A N/A N/A SE7       29.93S
NEW IBERIA     FAIR      81  76  84 CALM      29.95S
CHENAULT AIRPK CLOUDY    79  77  94 E6        29.92F

$$

LAZ027-028-200200-
CENTRAL LOUISIANA

CITY           SKY/WX    TMP DP  RH WIND       PRES   REMARKS
FORT POLK      FAIR      75  73  94 SE6       29.92F
ALEXANDRIA INT FAIR      77  74  90 E5        29.93F
ALEXANDRIA     FAIR      77  75  93 E3        29.96S

$$

LAZ001-002-200200-
NORTHWEST LOUISIANA

CITY           SKY/WX    TMP DP  RH WIND       PRES   REMARKS
SHREVEPORT     CLOUDY    83  73  72 E14       29.93S
BARKSDALE AFB  CLOUDY    78  71  77 SE10      29.93S
DTN SHREVEPORT MOCLDY    82  73  74 E14       29.94R

$$

LAZ014-016-200200-
NORTHEAST LOUISIANA

CITY           SKY/WX    TMP DP  RH WIND       PRES   REMARKS
MONROE         FAIR      74  73  97 CALM      29.98F
TALLULAH       FAIR      73  73 100 W6        29.98F

$$





USA.gov is the U.S. government's official web portal to all federal, state and local government web resources and services.